Trenton, NJ

6:21 AM EDT on March 30, 2017 (GMT -0400)
Trenton Mercer

Weather History for KTTN - August, 2014

Change the Weather History Date:

Saturday, August 16, 2014

  Actual Average Record
Temperature  
Mean Temperature 67 °F 74 °F  
Max Temperature 80 °F 84 °F 95 °F (1997)
Min Temperature 53 °F 65 °F 53 °F (1994)
Degree Days  
Heating Degree Days 0 0  
Month to date heating degree days 0 0  
Since 1 June heating degree days 3 24  
Since 1 July heating degree days 0 0  
Cooling Degree Days 2 9  
Month to date cooling degree days 113 149  
Year to date cooling degree days 677 726  
Since 1 June cooling degree days 633 669  
Growing Degree Days 16 (Base 50)    
Moisture  
Dew Point 52 °F    
Average Humidity 66    
Maximum Humidity 93    
Minimum Humidity 39    
Precipitation  
Precipitation 0.00 in 0.14 in 3.20 in (1909)
Month to date precipitation 1.28 2.11  
Year to date precipitation 29.28 28.99  
Sea Level Pressure  
Sea Level Pressure 29.96 in    
Wind  
Wind Speed 5 mph (WSW)    
Max Wind Speed 15 mph    
Max Gust Speed 20 mph    
Visibility 10 miles    
Events      
T = Trace of Precipitation, MM = Missing Value Source: NWS Daily Summary

Daily Weather History Graph

Daily Weather History Graph

Search for Another Location

Airport or City:

Trip Planner

Search our weather history database for the weather conditions in past years. The results will help you decide how hot, cold, wet, or windy it might be!

Date:

Astronomy

Aug. 16, 2014 Rise Set
Actual Time 6:11 AM EDT 7:55 PM EDT
Civil Twilight 5:42 AM EDT 8:24 PM EDT
Nautical Twilight 5:06 AM EDT 8:59 PM EDT
Astronomical Twilight 4:29 AM EDT 9:36 PM EDT
Moon 11:35 PM EDT (8/16) 12:55 PM EDT (8/16)
Length of Visible Light 14h 41m
Length of Day
13h 43m
Waning Gibbous, 59% of the Moon is Illuminated
Aug 16
Waning Gibbous
Aug 17
Last Quarter
Aug 25
New
Sep 2
First Quarter
Sep 8
Full

Hourly Weather History & Observations

Time (EDT) Temp. Dew Point Humidity Pressure Visibility Wind Dir Wind Speed Gust Speed Precip Events Conditions
1:53 AM 57.9 °F 52.0 °F 81% 29.97 in 10.0 mi Calm Calm - N/A   Clear
2:53 AM 57.9 °F 53.1 °F 84% 29.97 in 10.0 mi Calm Calm - N/A   Clear
3:53 AM 55.9 °F 52.0 °F 87% 29.97 in 10.0 mi Calm Calm - N/A   Clear
4:53 AM 55.9 °F 51.1 °F 84% 29.98 in 10.0 mi Calm Calm - N/A   Clear
5:53 AM 53.1 °F 50.0 °F 89% 29.99 in 10.0 mi Calm Calm - N/A   Clear
6:53 AM 54.0 °F 51.1 °F 90% 30.00 in 10.0 mi SW 3.5 mph - N/A   Clear
7:53 AM 60.1 °F 54.0 °F 80% 30.00 in 10.0 mi SW 3.5 mph - N/A   Clear
8:53 AM 63.0 °F 55.0 °F 75% 30.00 in 10.0 mi SSW 3.5 mph - N/A   Clear
9:53 AM 69.1 °F 52.0 °F 54% 30.01 in 10.0 mi NW 4.6 mph - N/A   Clear
10:53 AM 71.1 °F 54.0 °F 55% 30.01 in 10.0 mi SSW 4.6 mph - N/A   Clear
11:53 AM 73.9 °F 51.1 °F 45% 30.00 in 10.0 mi West 8.1 mph - N/A   Clear
12:53 PM 75.9 °F 52.0 °F 43% 29.98 in 10.0 mi SSW 11.5 mph 19.6 mph N/A   Clear
1:53 PM 77.0 °F 52.0 °F 42% 29.97 in 10.0 mi SW 8.1 mph - N/A   Clear
2:53 PM 78.1 °F 52.0 °F 40% 29.95 in 10.0 mi SW 15.0 mph 19.6 mph N/A   Partly Cloudy
3:53 PM 79.0 °F 52.0 °F 39% 29.93 in 10.0 mi SW 8.1 mph - N/A   Clear
4:53 PM 79.0 °F 53.1 °F 40% 29.92 in 10.0 mi SW 9.2 mph - N/A   Clear
5:53 PM 78.1 °F 53.1 °F 42% 29.91 in 10.0 mi SW 8.1 mph - N/A   Clear
6:53 PM 77.0 °F 51.1 °F 40% 29.91 in 10.0 mi WSW 6.9 mph - N/A   Clear
7:53 PM 73.9 °F 50.0 °F 43% 29.91 in 10.0 mi West 4.6 mph - N/A   Clear
8:53 PM 70.0 °F 51.1 °F 51% 29.92 in 10.0 mi West 3.5 mph - N/A   Clear
9:53 PM 66.9 °F 52.0 °F 59% 29.92 in 10.0 mi Calm Calm - N/A   Clear
10:53 PM 66.0 °F 53.1 °F 63% 29.91 in 10.0 mi WSW 3.5 mph - N/A   Clear
11:53 PM 66.0 °F 53.1 °F 63% 29.91 in 10.0 mi WSW 3.5 mph - N/A   Clear